{"data":{"norad_id":55590,"intl_designator":"2023-020X","name":"STARLINK-5762","alt_names":[],"object_type":"PAYLOAD","status":"ACTIVE","operator":null,"country":"US","launch_date":"2023-02-12","launch_site_code":"AFETR","launch_vehicle":null,"mission":null,"orbit_class":"UNKNOWN","rcs_meters":null,"size_class":null,"mass_kg":null,"dimensions":null,"purposes":["comms"],"wikipedia_slug":null,"has_3d_model":false,"image_url":null,"decayed_at":null,"tle_current":{"epoch":"2026-09-20T12:59:26.671488Z","epoch_age_seconds":96862,"freshness":"FRESH","line1":"1 55590U 23020X   26263.54128092 -.00000192  00000+0  25369-5 0  9993","line2":"2 55590  43.0053 344.7166 0001229 281.3513  78.7201 15.27575580198715","mean_motion":15.2757558,"eccentricity":0.0001229,"inclination_deg":43.0053,"raan_deg":344.7166,"arg_perigee_deg":281.3513,"mean_anomaly_deg":78.7201,"bstar":2.5369e-6,"rev_number":19871,"period_min":94.267021472024,"perigee_km":482.21908974385,"apogee_km":483.90557253945,"semimajor_km":6861.1993311417,"source":"CELESTRAK","updated_at":"2026-09-21T09:00:33.268232Z"}}}